SCP
0 0 0 0 0 0 0 0 0 0 0 0 0 0 0 0 0 0 0 0 0 0 0 0 0 0 0 0 0 0 0 0 0 0 0 0 0 0 0 0 0 0 0 0 0 0 0 0 0 0 0 0 0 0
0 0 0 0 0 0 0 0 0 0 0 0 0 0 0 0 0 0 0 0 0 0 0 0 0 0 0 0 0 0 0 0 1 0 0 0 0 0 0 0 0 0 0 0 0 0 0 0 0 0 0 0 0 0
0 0 0 0 0 0 0 0 0 0 0 0 0 0 0 0 0 0 0 0 0 0 0 0 0 0 0 0 0 0 0 0 0 0 0 0 0 0 0 0 0 0 0 0 0 0 0 0 0 0 0 0 0 0
0 0 0 0 0 0 0 0 0 0 0 0 0 0 0 0 0 0 0 0 0 0 0 0 0 0 0 0 0 0 0 0 0 0 0 0 0 0 0 0 0 0 0 0 0 0 0 0 0 0 0 0 0 0
0 0 0 0 0 0 0 0 0 0 0 0 0 0 0 0 0 0 0 0 0 0 0 0 0 0 0 0 0 0 0 0 0 0 0 0 0 0 0 0 0 0 0 0 0 0 0 0 0 0 0 0 0 0
0 0 0 0 0 0 0 0 0 0 0 0 0 0 0 0 0 0 0 0 0 0 0 0 0 0 0 0 0 0 0 0 0 0 0 0 0 0 0 0 0 0 0 0 0 0 0 0 -0 0 0 0 0 0
0 0 0 0 0 0 0 0 0 0 0 0 0 0 0 0 0 0 0 0 0 0 0 0 0 0 0 0 0 0 0 0 0 0 0 0 0 0 0 0 0 0 0 0 0 0 0 0 0 0 0 0 0 0
0 0 0 0 0 0 0 0 0 0 0 0 0 0 0 0 0 0 0 0 0 0 0 0 0 0 0 0 0 0 0 0 0 0 0 0 0 0 0 0 0 0 0 0 0 0 0 0 0 0 0 1 1 0
0 0 0 0 0 0 0 0 0 0 0 0 0 0 0 0 0 0 0 0 0 0 0 0 0 0 0 0 0 0 0 0 0 0 0 0 0 0 0 0 0 0 0 0 0 0 0 0 0 0 1 1 0 0
0 0 0 0 0 0 0 0 0 0 0 0 0 0 0 0 0 0 0 0 0 0 0 0 0 0 0 0 0 0 0 0 0 0 0 0 0 0 0 0 0 0 0 0 0 0 0 0 0 1 0 0 0 0
0 0 0 0 0 0 0 0 0 0 0 0 0 0 0 0 0 0 0 0 0 0 0 0 0 0 0 0 0 0 0 0 0 0 0 0 0 0 0 0 0 0 0 0 0 0 0 0 0 0 0 0 0 0
0 0 0 0 0 0 0 0 0 0 0 0 0 0 0 0 0 0 0 0 0 0 0 0 0 0 0 0 0 0 0 0 0 0 0 0 0 0 0 0 0 0 0 0 0 0 0 0 0 0 0 0 0 0
0 0 0 0 0 0 0 0 0 0 0 0 0 0 0 0 0 0 0 0 0 0 0 0 0 0 0 0 0 0 0 0 0 0 0 0 0 0 0 0 0 0 0 0 0 0 0 0 0 0 0 0 0 0
0 0 0 0 0 0 0 0 0 0 0 0 0 0 0 0 0 0 0 0 0 0 0 0 0 0 0 0 0 0 0 0 0 0 0 0 0 0 0 0 0 0 0 0 0 0 0 0 0 0 0 0 0 0
0 0 0 0 0 0 0 0 0 0 0 0 0 0 0 0 0 0 0 0 0 0 0 0 0 0 0 0 0 0 0 0 0 0 0 0 0 0 0 0 0 0 0 0 0 0 0 0 0 0 0 0 0 0
0 0 0 0 0 0 0 0 0 0 0 0 0 0 0 0 0 0 0 0 0 0 0 0 0 0 0 0 0 0 0 0 0 0 0 0 0 0 0 0 0 0 0 0 0 0 0 0 0 0 0 0 0 0
0 0 0 0 0 0 0 0 0 0 0 0 0 0 0 0 0 0 0 0 0 0 0 0 0 0 0 0 0 0 0 0 0 0 0 0 0 0 0 0 0 0 0 0 0 0 0 0 0 0 0 0 0 0
0 0 0 0 0 0 0 0 0 0 0 0 0 0 0 0 0 0 0 0 0 0 0 0 0 0 0 0 0 0 0 0 0 0 0 0 0 0 0 0 0 0 0 0 0 0 0 0 0 0 0 0 0 0
0 0 0 0 0 0 0 0 0 0 0 0 0 0 0 0 0 0 0 0 0 0 0 0 0 0 0 0 0 0 0 0 0 0 0 0 0 0 0 0 0 0 0 0 0 -0 0 0 0 0 0 0 0 0
0 0 0 0 0 0 0 0 0 0 0 0 0 0 0 0 0 0 0 0 0 0 0 0 0 0 0 0 0 0 0 0 0 0 0 0 0 0 0 0 0 0 0 0 0 0 0 0 0 0 0 0 0 0
0 0 0 0 0 0 0 0 0 0 0 0 0 0 0 0 0 0 0 0 0 0 0 0 0 0 0 0 0 0 0 0 0 0 0 0 0 0 0 0 0 0 0 0 0 0 0 0 0 0 0 0 0 0
0 0 0 0 0 0 0 0 0 0 0 0 0 0 0 0 0 0 0 0 0 0 0 0 0 0 0 0 0 0 0 0 0 0 0 0 0 0 0 0 0 0 0 0 0 0 0 0 0 0 0 0 0 0
0 0 0 0 0 0 0 0 0 0 0 0 0 0 0 0 0 0 0 0 0 0 0 0 0 0 0 0 0 0 0 0 0 0 0 0 0 0 0 0 0 0 0 0 0 0 0 0 0 0 0 0 0 0
0 0 0 0 0 0 0 0 0 0 0 0 0 0 0 0 0 0 0 0 0 0 0 0 0 0 0 0 0 0 0 0 0 0 0 0 0 0 0 0 0 0 0 0 0 0 0 0 0 0 0 0 0 0
0 0 0 0 0 0 0 0 0 0 0 0 0 0 0 0 0 0 0 0 0 0 0 0 0 0 0 0 0 0 0 0 0 0 0 0 0 0 0 0 0 0 0 0 0 0 0 0 0 0 0 0 0 0
0 0 0 0 0 0 0 0 0 0 0 0 0 0 0 0 0 0 0 0 0 0 0 0 0 0 0 0 0 0 0 0 0 0 0 0 0 0 0 0 0 0 0 0 0 0 0 0 0 0 0 0 0 0
0 0 0 0 0 0 0 0 0 0 0 0 0 0 0 0 0 0 0 0 0 0 0 0 0 0 0 0 0 0 0 0 0 0 0 0 0 0 0 0 0 0 0 0 0 0 0 0 0 0 0 0 0 0
0 0 0 0 0 0 0 0 0 0 0 0 0 0 0 0 0 0 0 0 0 0 0 0 0 0 0 0 0 0 0 0 0 0 0 0 0 0 0 0 0 0 0 0 0 0 0 0 0 0 0 0 0 0
0 0 0 0 0 0 0 0 0 0 0 0 0 0 0 0 0 0 0 0 0 0 0 0 0 0 0 0 0 0 0 0 0 0 0 0 0 0 0 0 0 0 0 0 0 0 0 0 0 0 0 0 0 0
0 0 0 0 0 0 0 0 0 0 0 0 0 0 0 0 0 0 0 0 0 0 0 0 0 0 0 0 0 0 0 0 0 0 0 0 0 0 0 0 0 0 0 0 0 0 0 0 0 0 0 0 0 0
0 0 0 0 0 0 0 0 0 0 0 0 0 0 0 0 0 0 0 0 0 0 0 0 0 0 0 0 0 0 0 0 0 0 0 0 0 0 0 0 0 0 0 0 0 0 0 0 0 0 0 0 0 0
-0 0 0 0 0 -0 -0 -0 0 0 0 0 0 0 0 0 0 0 0 0 0 0 0 0 0 0 0 0 0 0 0 0 0 0 -0 0 0 0 0 0 0 0 0 0 0 0 0 0 0 0 0 0 0 0
0 0 0 -0 -0 0 0 0 0 0 0 0 0 0 0 0 0 0 0 0 0 0 0 0 0 0 0 0 0 0 0 0 0 0 0 0 0 0 0 0 0 0 0 0 0 0 0 0 0 0 0 0 0 0
Wind_Speed_500mb
24 29 31 33 36 36 38 45 45 42 36 37 35 36 36 35 35 34 32 30 35 11 27 21 20 11 22 10 2 9 6 12 8 8 5 3 4 5 5 5 3 3 5 2 4 3 11 3 8 7 11 17 30 35
22 30 34 31 36 36 40 41 44 41 37 39 36 37 37 36 35 35 31 28 33 32 17 16 16 15 20 15 14 12 5 6 5 8 1 4 1 4 1 4 4 4 6 6 12 10 9 13 20 16 24 29 42 44
26 30 35 31 36 33 44 35 46 41 39 39 37 38 38 37 37 38 33 19 22 22 33 39 28 2 5 5 6 6 1 4 6 5 8 4 1 7 3 3 3 5 4 3 5 8 20 23 28 32 40 43 32 27
28 29 33 33 37 32 45 40 46 41 41 38 37 39 38 37 38 40 40 20 25 9 8 15 12 17 23 16 12 4 8 8 8 6 4 4 3 10 7 5 7 7 8 9 9 18 22 38 45 47 47 41 39 38
28 28 28 33 39 34 41 35 45 41 40 36 38 38 37 36 37 39 42 33 19 13 6 13 26 37 21 20 19 6 3 6 8 6 5 6 6 7 3 4 5 17 12 9 11 14 19 24 20 33 46 35 28 18
33 27 26 32 40 38 40 38 42 40 36 36 37 36 35 35 32 26 20 36 27 20 8 6 7 14 27 33 24 15 7 3 2 3 5 5 5 4 6 6 12 26 35 32 9 11 24 40 41 35 13 19 16 15
33 28 26 34 39 45 39 48 43 37 35 36 36 34 34 34 35 40 11 18 34 24 9 7 10 13 38 35 26 17 13 7 6 4 7 5 5 4 6 7 19 18 29 27 24 26 25 24 14 14 14 15 15 14
30 25 27 35 36 53 43 42 35 35 36 34 32 31 31 31 35 47 12 21 40 24 10 4 9 5 29 16 11 15 10 13 8 7 5 6 5 2 4 17 12 10 10 23 24 23 23 16 16 21 15 23 21 22
26 27 27 35 36 50 48 36 38 38 34 30 29 27 25 23 25 39 15 17 32 18 6 8 7 6 23 16 12 10 10 3 7 7 8 9 1 6 11 13 29 23 18 10 12 21 29 33 23 16 27 29 32 26
30 27 29 36 41 44 47 41 35 35 29 28 27 16 12 22 31 25 19 14 15 12 12 11 9 4 12 12 10 7 5 5 2 7 11 5 7 15 9 12 8 7 5 12 13 22 26 35 34 26 32 36 28 12
30 29 32 41 46 45 62 44 37 29 26 25 19 11 13 40 29 18 11 13 15 8 15 10 19 5 9 8 8 11 6 3 3 8 8 1 4 5 12 12 3 4 7 14 19 23 27 30 27 31 45 44 32 31
30 31 36 45 50 47 64 47 38 36 22 22 14 14 32 16 11 9 7 5 8 11 16 23 20 18 7 7 8 10 5 3 7 4 6 1 7 5 18 17 12 6 7 14 18 17 14 12 10 20 32 34 25 18
31 35 44 52 56 69 56 46 39 37 20 13 11 13 11 9 5 14 12 5 4 12 22 24 14 24 9 6 9 6 5 8 0 7 5 8 5 7 15 18 20 9 8 12 9 6 5 6 5 13 19 26 19 24
36 42 55 60 66 54 47 40 37 30 12 9 11 5 10 7 8 10 10 12 13 15 35 39 26 9 9 6 6 7 6 4 5 5 10 7 9 11 17 18 22 26 13 8 10 8 7 8 11 19 21 17 20 32
40 54 55 61 58 46 41 36 31 21 7 9 8 9 10 9 8 12 16 8 10 12 37 27 14 10 6 8 1 6 4 5 7 10 6 11 12 15 21 27 23 21 19 15 12 19 14 14 17 23 22 27 24 27
52 56 61 60 55 49 38 31 25 12 6 6 8 3 3 6 5 9 14 10 13 22 30 16 8 7 3 7 6 8 11 9 7 4 18 18 18 24 23 19 23 20 19 16 13 7 16 22 23 22 21 21 22 27
64 48 70 63 53 42 36 26 15 5 6 7 2 2 7 5 9 11 17 13 26 20 6 10 7 6 7 6 5 5 10 5 25 33 25 21 20 21 21 20 16 20 20 20 21 20 12 24 29 21 18 19 24 37
48 68 61 56 51 44 28 12 10 4 9 5 9 15 21 15 13 15 15 12 12 13 8 6 11 6 5 8 5 6 9 35 31 29 26 21 19 16 18 17 14 18 22 25 24 22 21 20 20 21 23 25 28 27
64 63 61 55 49 18 10 10 5 6 5 5 17 26 28 32 34 27 27 30 30 27 15 8 10 4 5 6 7 24 42 39 36 30 24 22 17 11 11 12 12 15 17 19 24 23 23 22 20 21 21 20 25 33
65 65 62 44 26 8 9 10 3 1 9 11 17 25 20 27 35 33 27 26 24 12 13 7 1 1 5 18 30 33 28 26 24 21 17 13 8 9 10 12 11 13 16 15 15 15 16 24 21 18 17 24 27 31
54 50 46 27 29 17 12 7 7 8 9 11 15 20 15 25 28 31 29 21 18 10 7 6 11 20 26 30 28 20 20 18 15 15 12 7 7 6 4 5 7 9 9 6 11 12 12 13 17 18 19 25 15 15
45 56 36 35 23 11 12 11 7 7 8 8 14 12 12 10 12 14 12 20 11 15 11 18 26 25 24 23 20 14 13 10 7 4 2 3 4 2 3 7 9 6 1 4 6 8 13 17 19 14 18 22 22 26
49 45 23 19 8 12 7 13 8 9 7 6 6 7 7 7 8 8 9 7 12 23 23 17 17 18 18 15 12 8 4 2 4 3 2 7 11 14 15 9 5 10 11 13 9 7 10 14 16 17 19 21 24 27
41 13 8 8 10 4 5 8 7 7 7 6 5 5 5 6 6 8 3 5 9 11 10 8 16 18 15 11 7 7 9 11 11 9 6 2 6 16 12 8 5 7 11 15 18 20 18 16 18 21 25 29 30 31
12 10 7 6 4 5 5 5 5 7 5 3 5 4 4 6 5 4 0 3 9 12 16 15 6 14 15 22 21 19 16 14 12 12 11 9 10 11 12 11 10 11 14 15 16 17 11 10 14 19 20 17 19 22
7 5 8 8 5 5 6 5 4 5 4 4 2 4 6 7 4 2 4 10 7 12 11 11 16 30 29 22 18 14 14 11 8 9 6 4 4 6 9 11 10 10 6 13 18 15 13 13 13 14 15 18 20 23
6 3 4 2 3 11 7 7 8 8 5 5 5 4 4 5 4 3 7 14 22 24 23 22 19 18 17 13 12 13 11 9 7 7 8 10 8 6 2 2 13 9 5 8 9 10 14 14 16 18 20 23 20 24
11 9 7 12 16 12 7 7 5 4 4 4 8 4 6 4 1 16 26 23 20 19 19 21 20 17 14 13 13 13 12 12 10 6 3 3 5 3 5 9 13 17 20 23 25 28 27 27 29 30 33 40 44 46
17 16 19 17 12 13 12 7 7 10 14 6 6 5 8 20 17 14 13 10 9 8 8 9 10 12 13 15 18 21 24 28 30 26 24 24 24 23 24 25 27 27 25 23 23 25 29 33 36 37 41 44 41 35
12 18 10 9 6 5 8 9 11 16 18 18 15 15 17 14 11 7 5 6 6 9 10 12 17 19 21 23 23 24 28 33 31 22 14 13 13 13 15 20 27 32 36 40 43 45 45 44 45 46 48 47 44 39
9 8 7 6 5 9 11 8 1 2 4 6 1 2 1 6 6 11 10 11 9 12 12 13 18 22 25 26 28 25 22 14 14 17 20 19 21 20 20 23 26 33 43 45 41 39 39 37 38 38 36 38 36 39
4 5 4 4 3 9 10 6 4 5 11 14 16 13 11 12 6 9 24 22 16 14 10 8 9 11 14 19 22 21 20 18 13 15 18 21 23 27 25 26 30 31 39 39 30 30 30 36 41 35 30 33 25 19
4 4 2 0 1 2 5 4 3 5 10 17 22 11 8 5 11 12 18 24 24 24 22 11 7 6 7 8 9 8 9 10 15 20 23 26 22 19 21 23 29 32 35 32 32 33 36 38 38 31 25 23 23 19
Wind_Direction_500mb
271 281 281 247 228 222 221 216 224 222 222 220 214 215 217 220 221 222 218 224 215 250 272 281 286 325 348 9 107 347 68 22 42 67 114 211 174 263 12 5 25 132 112 131 113 84 283 7 295 193 199 187 170 165
271 281 278 250 227 221 216 219 220 220 218 215 210 213 213 218 219 220 220 224 222 241 273 275 253 276 302 295 321 16 98 130 135 92 115 121 34 35 135 343 341 357 171 197 176 224 284 291 255 233 208 211 220 231
261 273 271 245 227 221 211 218 216 215 213 210 208 211 211 216 217 218 208 192 209 239 277 271 258 129 204 285 327 308 343 127 140 108 143 153 117 129 79 277 333 319 178 164 31 244 253 263 247 244 234 241 238 275
262 271 264 234 223 221 204 212 209 209 209 206 207 209 211 215 218 218 207 197 198 239 242 255 254 263 246 264 242 238 250 192 164 152 128 132 166 184 204 202 183 206 148 170 259 274 276 264 250 255 249 252 262 292
262 276 264 233 218 215 208 203 206 204 204 204 205 207 211 214 219 222 211 193 199 228 271 285 268 258 255 220 203 236 180 190 197 176 140 217 181 133 67 89 252 197 191 166 233 263 219 269 294 280 267 269 285 295
262 273 267 230 217 212 203 208 204 202 201 202 203 205 209 212 215 208 229 212 200 218 281 325 296 227 203 194 204 205 216 256 260 252 232 230 183 170 125 199 257 231 236 243 256 314 292 275 290 322 277 270 267 301
266 268 260 224 216 210 205 200 198 196 198 200 201 201 206 210 202 182 193 173 191 180 229 267 290 187 185 186 198 204 211 226 252 248 236 241 178 176 112 202 265 277 254 259 257 277 288 280 265 319 321 274 258 257
265 272 252 221 216 201 204 190 193 196 196 197 198 198 203 207 203 201 202 183 186 186 225 175 265 185 186 171 164 196 209 215 226 238 225 205 140 127 246 247 318 282 216 224 231 243 257 254 279 281 242 235 212 156
262 277 241 221 208 202 191 173 197 195 191 191 190 190 194 194 193 197 200 181 185 202 237 191 171 214 173 170 155 171 199 170 226 213 226 159 2 223 233 249 306 273 244 267 229 243 251 264 288 271 210 176 145 124
255 265 231 217 202 187 177 180 197 186 183 183 176 172 181 183 175 186 175 171 186 228 229 229 188 212 177 151 150 152 184 191 169 251 136 109 243 275 325 339 296 320 272 239 265 262 268 270 251 211 182 165 137 141
259 247 224 206 192 177 172 198 196 181 181 177 182 195 171 162 161 185 177 175 188 226 209 212 192 152 162 127 179 200 180 162 128 260 134 0 331 341 31 43 85 33 329 298 301 307 306 287 258 211 192 203 230 264
254 230 211 195 182 180 179 204 188 184 181 182 171 143 141 160 180 163 191 174 185 210 190 183 190 194 161 154 130 172 154 93 217 137 87 67 251 38 64 68 76 76 14 352 350 347 347 311 282 248 237 233 245 229
236 211 197 188 180 179 193 191 187 184 186 192 190 163 167 178 99 167 185 235 209 193 172 170 172 172 157 168 90 101 96 227 158 54 183 220 201 109 67 63 43 16 349 341 341 358 21 2 311 276 270 267 238 199
215 199 183 179 175 186 187 185 187 188 196 209 181 160 175 191 221 192 180 181 201 191 179 173 149 158 140 116 134 116 229 107 64 114 223 218 165 72 47 36 41 45 39 326 283 234 286 269 292 294 284 280 245 216
194 178 177 176 180 184 184 181 179 184 222 231 177 190 198 215 234 224 203 192 180 144 167 136 111 154 87 111 62 97 118 204 198 206 230 150 101 72 61 52 41 49 43 19 290 242 262 257 301 325 298 309 277 248
165 171 177 172 177 177 169 167 169 170 255 258 238 137 171 150 230 182 187 171 158 160 143 137 100 81 122 126 119 185 147 197 227 186 121 114 94 71 66 49 35 35 30 32 44 336 282 269 283 311 328 340 313 283
170 169 165 167 165 158 158 152 150 170 266 265 190 69 182 128 159 139 142 126 152 147 106 111 88 171 115 89 148 179 184 212 142 133 133 125 107 93 75 58 42 30 16 23 27 21 322 303 308 311 292 273 290 333
155 161 158 152 152 153 153 144 102 193 270 311 94 84 88 104 111 94 77 111 125 106 110 121 114 82 123 147 239 203 134 137 139 133 133 123 108 90 87 68 52 41 41 43 34 21 21 9 344 322 307 296 272 256
155 148 145 149 150 151 133 87 145 223 44 39 73 78 79 84 79 79 84 95 99 97 97 72 72 123 204 202 168 150 149 149 144 140 130 118 122 103 90 78 62 42 47 35 39 44 44 28 356 340 328 324 305 268
145 145 149 153 157 132 96 90 280 88 49 26 52 59 77 64 70 76 89 86 90 70 56 49 99 58 135 127 141 139 143 142 134 137 145 133 82 84 95 86 57 64 43 40 42 40 38 33 20 352 332 324 314 314
143 140 146 153 143 62 87 95 67 50 52 58 48 70 64 75 56 55 48 51 58 42 49 5 114 117 119 125 134 123 123 122 126 134 124 89 86 111 19 14 5 347 358 34 35 21 3 333 323 327 331 335 316 343
131 136 136 133 111 55 65 46 70 59 60 67 46 47 55 46 36 33 38 46 70 43 46 118 126 131 135 121 117 118 109 99 102 121 208 301 326 3 318 306 305 312 337 353 4 6 347 338 331 317 313 315 305 282
130 135 100 64 78 40 38 24 67 42 69 34 47 54 34 46 34 44 62 67 93 70 78 91 142 140 136 128 118 113 114 164 176 181 271 291 301 311 311 306 126 124 115 105 82 54 1 344 336 333 332 332 327 319
126 89 58 48 54 62 37 35 59 71 81 64 64 67 36 52 53 57 34 60 83 51 48 69 183 172 171 186 214 241 256 251 242 255 269 220 150 122 107 86 42 357 351 345 339 340 344 342 333 322 323 329 334 338
68 19 34 51 105 102 74 37 40 64 78 59 92 72 40 51 65 52 84 356 36 11 15 12 285 216 214 148 117 110 113 117 102 108 87 48 10 346 339 341 344 349 359 8 21 17 4 346 342 347 349 343 334 332
88 166 168 178 158 116 143 103 121 139 103 64 47 78 80 71 74 320 305 6 64 77 84 108 127 129 123 115 103 101 95 100 98 116 87 24 349 343 326 318 310 344 47 32 24 22 15 360 345 331 323 330 333 332
82 141 139 153 147 139 105 102 106 98 96 139 156 88 89 121 154 5 44 120 108 100 94 89 92 94 84 75 58 38 23 16 2 21 352 339 344 353 6 112 114 110 40 8 4 350 338 343 335 329 330 331 325 324
44 60 93 68 68 56 89 85 83 61 55 79 115 99 109 93 45 90 91 91 94 90 81 74 72 64 53 41 31 18 12 22 16 11 310 358 23 65 36 24 1 343 329 327 325 325 319 308 309 307 306 307 305 300
70 69 76 51 56 49 47 66 63 46 46 51 81 55 66 84 80 68 59 56 39 12 353 339 336 353 347 336 331 330 331 332 334 332 325 319 316 316 318 322 324 324 319 318 310 295 292 290 292 294 293 292 295 291
53 60 62 47 65 55 50 65 100 85 68 65 78 106 111 100 69 53 9 346 328 323 314 317 307 306 312 313 307 309 312 314 312 304 306 304 307 302 298 301 305 309 312 317 318 315 308 303 302 302 300 296 294 299
48 55 62 56 61 49 20 13 107 50 40 44 85 247 293 143 141 42 15 358 336 319 300 283 289 290 296 299 297 303 321 310 302 310 314 310 306 298 298 307 317 323 326 320 314 315 317 318 317 315 311 307 297 298
74 70 71 53 34 3 347 355 345 291 285 287 286 277 263 262 60 24 5 7 4 16 9 343 323 335 319 308 295 283 266 285 292 309 314 318 313 307 309 319 327 332 334 331 317 319 322 324 324 319 319 326 301 301
28 30 70 121 328 45 36 351 272 276 257 248 249 270 306 52 83 25 25 16 9 5 4 19 37 42 34 358 326 314 303 278 257 271 283 293 290 290 292 298 307 315 325 324 322 319 320 324 328 319 309 321 326 306
Wind_Speed_850mb
24 29 31 33 36 36 38 45 45 42 36 37 35 36 36 35 35 34 32 30 35 11 27 21 20 11 22 10 2 9 6 12 8 8 5 3 4 5 5 5 3 3 5 2 4 3 11 3 8 7 11 17 30 35
22 30 34 31 36 36 40 41 44 41 37 39 36 37 37 36 35 35 31 28 33 32 17 16 16 15 20 15 14 12 5 6 5 8 1 4 1 4 1 4 4 4 6 6 12 10 9 13 20 16 24 29 42 44
26 30 35 31 36 33 44 35 46 41 39 39 37 38 38 37 37 38 33 19 22 22 33 39 28 2 5 5 6 6 1 4 6 5 8 4 1 7 3 3 3 5 4 3 5 8 20 23 28 32 40 43 32 27
28 29 33 33 37 32 45 40 46 41 41 38 37 39 38 37 38 40 40 20 25 9 8 15 12 17 23 16 12 4 8 8 8 6 4 4 3 10 7 5 7 7 8 9 9 18 22 38 45 47 47 41 39 38
28 28 28 33 39 34 41 35 45 41 40 36 38 38 37 36 37 39 42 33 19 13 6 13 26 37 21 20 19 6 3 6 8 6 5 6 6 7 3 4 5 17 12 9 11 14 19 24 20 33 46 35 28 18
33 27 26 32 40 38 40 38 42 40 36 36 37 36 35 35 32 26 20 36 27 20 8 6 7 14 27 33 24 15 7 3 2 3 5 5 5 4 6 6 12 26 35 32 9 11 24 40 41 35 13 19 16 15
33 28 26 34 39 45 39 48 43 37 35 36 36 34 34 34 35 40 11 18 34 24 9 7 10 13 38 35 26 17 13 7 6 4 7 5 5 4 6 7 19 18 29 27 24 26 25 24 14 14 14 15 15 14
30 25 27 35 36 53 43 42 35 35 36 34 32 31 31 31 35 47 12 21 40 24 10 4 9 5 29 16 11 15 10 13 8 7 5 6 5 2 4 17 12 10 10 23 24 23 23 16 16 21 15 23 21 22
26 27 27 35 36 50 48 36 38 38 34 30 29 27 25 23 25 39 15 17 32 18 6 8 7 6 23 16 12 10 10 3 7 7 8 9 1 6 11 13 29 23 18 10 12 21 29 33 23 16 27 29 32 26
30 27 29 36 41 44 47 41 35 35 29 28 27 16 12 22 31 25 19 14 15 12 12 11 9 4 12 12 10 7 5 5 2 7 11 5 7 15 9 12 8 7 5 12 13 22 26 35 34 26 32 36 28 12
30 29 32 41 46 45 62 44 37 29 26 25 19 11 13 40 29 18 11 13 15 8 15 10 19 5 9 8 8 11 6 3 3 8 8 1 4 5 12 12 3 4 7 14 19 23 27 30 27 31 45 44 32 31
30 31 36 45 50 47 64 47 38 36 22 22 14 14 32 16 11 9 7 5 8 11 16 23 20 18 7 7 8 10 5 3 7 4 6 1 7 5 18 17 12 6 7 14 18 17 14 12 10 20 32 34 25 18
31 35 44 52 56 69 56 46 39 37 20 13 11 13 11 9 5 14 12 5 4 12 22 24 14 24 9 6 9 6 5 8 0 7 5 8 5 7 15 18 20 9 8 12 9 6 5 6 5 13 19 26 19 24
36 42 55 60 66 54 47 40 37 30 12 9 11 5 10 7 8 10 10 12 13 15 35 39 26 9 9 6 6 7 6 4 5 5 10 7 9 11 17 18 22 26 13 8 10 8 7 8 11 19 21 17 20 32
40 54 55 61 58 46 41 36 31 21 7 9 8 9 10 9 8 12 16 8 10 12 37 27 14 10 6 8 1 6 4 5 7 10 6 11 12 15 21 27 23 21 19 15 12 19 14 14 17 23 22 27 24 27
52 56 61 60 55 49 38 31 25 12 6 6 8 3 3 6 5 9 14 10 13 22 30 16 8 7 3 7 6 8 11 9 7 4 18 18 18 24 23 19 23 20 19 16 13 7 16 22 23 22 21 21 22 27
64 48 70 63 53 42 36 26 15 5 6 7 2 2 7 5 9 11 17 13 26 20 6 10 7 6 7 6 5 5 10 5 25 33 25 21 20 21 21 20 16 20 20 20 21 20 12 24 29 21 18 19 24 37
48 68 61 56 51 44 28 12 10 4 9 5 9 15 21 15 13 15 15 12 12 13 8 6 11 6 5 8 5 6 9 35 31 29 26 21 19 16 18 17 14 18 22 25 24 22 21 20 20 21 23 25 28 27
64 63 61 55 49 18 10 10 5 6 5 5 17 26 28 32 34 27 27 30 30 27 15 8 10 4 5 6 7 24 42 39 36 30 24 22 17 11 11 12 12 15 17 19 24 23 23 22 20 21 21 20 25 33
65 65 62 44 26 8 9 10 3 1 9 11 17 25 20 27 35 33 27 26 24 12 13 7 1 1 5 18 30 33 28 26 24 21 17 13 8 9 10 12 11 13 16 15 15 15 16 24 21 18 17 24 27 31
54 50 46 27 29 17 12 7 7 8 9 11 15 20 15 25 28 31 29 21 18 10 7 6 11 20 26 30 28 20 20 18 15 15 12 7 7 6 4 5 7 9 9 6 11 12 12 13 17 18 19 25 15 15
45 56 36 35 23 11 12 11 7 7 8 8 14 12 12 10 12 14 12 20 11 15 11 18 26 25 24 23 20 14 13 10 7 4 2 3 4 2 3 7 9 6 1 4 6 8 13 17 19 14 18 22 22 26
49 45 23 19 8 12 7 13 8 9 7 6 6 7 7 7 8 8 9 7 12 23 23 17 17 18 18 15 12 8 4 2 4 3 2 7 11 14 15 9 5 10 11 13 9 7 10 14 16 17 19 21 24 27
41 13 8 8 10 4 5 8 7 7 7 6 5 5 5 6 6 8 3 5 9 11 10 8 16 18 15 11 7 7 9 11 11 9 6 2 6 16 12 8 5 7 11 15 18 20 18 16 18 21 25 29 30 31
12 10 7 6 4 5 5 5 5 7 5 3 5 4 4 6 5 4 0 3 9 12 16 15 6 14 15 22 21 19 16 14 12 12 11 9 10 11 12 11 10 11 14 15 16 17 11 10 14 19 20 17 19 22
7 5 8 8 5 5 6 5 4 5 4 4 2 4 6 7 4 2 4 10 7 12 11 11 16 30 29 22 18 14 14 11 8 9 6 4 4 6 9 11 10 10 6 13 18 15 13 13 13 14 15 18 20 23
6 3 4 2 3 11 7 7 8 8 5 5 5 4 4 5 4 3 7 14 22 24 23 22 19 18 17 13 12 13 11 9 7 7 8 10 8 6 2 2 13 9 5 8 9 10 14 14 16 18 20 23 20 24
11 9 7 12 16 12 7 7 5 4 4 4 8 4 6 4 1 16 26 23 20 19 19 21 20 17 14 13 13 13 12 12 10 6 3 3 5 3 5 9 13 17 20 23 25 28 27 27 29 30 33 40 44 46
17 16 19 17 12 13 12 7 7 10 14 6 6 5 8 20 17 14 13 10 9 8 8 9 10 12 13 15 18 21 24 28 30 26 24 24 24 23 24 25 27 27 25 23 23 25 29 33 36 37 41 44 41 35
12 18 10 9 6 5 8 9 11 16 18 18 15 15 17 14 11 7 5 6 6 9 10 12 17 19 21 23 23 24 28 33 31 22 14 13 13 13 15 20 27 32 36 40 43 45 45 44 45 46 48 47 44 39
9 8 7 6 5 9 11 8 1 2 4 6 1 2 1 6 6 11 10 11 9 12 12 13 18 22 25 26 28 25 22 14 14 17 20 19 21 20 20 23 26 33 43 45 41 39 39 37 38 38 36 38 36 39
4 5 4 4 3 9 10 6 4 5 11 14 16 13 11 12 6 9 24 22 16 14 10 8 9 11 14 19 22 21 20 18 13 15 18 21 23 27 25 26 30 31 39 39 30 30 30 36 41 35 30 33 25 19
4 4 2 0 1 2 5 4 3 5 10 17 22 11 8 5 11 12 18 24 24 24 22 11 7 6 7 8 9 8 9 10 15 20 23 26 22 19 21 23 29 32 35 32 32 33 36 38 38 31 25 23 23 19
Wind_Direction_850mb
271 281 281 247 228 222 221 216 224 222 222 220 214 215 217 220 221 222 218 224 215 250 272 281 286 325 348 9 107 347 68 22 42 67 114 211 174 263 12 5 25 132 112 131 113 84 283 7 295 193 199 187 170 165
271 281 278 250 227 221 216 219 220 220 218 215 210 213 213 218 219 220 220 224 222 241 273 275 253 276 302 295 321 16 98 130 135 92 115 121 34 35 135 343 341 357 171 197 176 224 284 291 255 233 208 211 220 231
261 273 271 245 227 221 211 218 216 215 213 210 208 211 211 216 217 218 208 192 209 239 277 271 258 129 204 285 327 308 343 127 140 108 143 153 117 129 79 277 333 319 178 164 31 244 253 263 247 244 234 241 238 275
262 271 264 234 223 221 204 212 209 209 209 206 207 209 211 215 218 218 207 197 198 239 242 255 254 263 246 264 242 238 250 192 164 152 128 132 166 184 204 202 183 206 148 170 259 274 276 264 250 255 249 252 262 292
262 276 264 233 218 215 208 203 206 204 204 204 205 207 211 214 219 222 211 193 199 228 271 285 268 258 255 220 203 236 180 190 197 176 140 217 181 133 67 89 252 197 191 166 233 263 219 269 294 280 267 269 285 295
262 273 267 230 217 212 203 208 204 202 201 202 203 205 209 212 215 208 229 212 200 218 281 325 296 227 203 194 204 205 216 256 260 252 232 230 183 170 125 199 257 231 236 243 256 314 292 275 290 322 277 270 267 301
266 268 260 224 216 210 205 200 198 196 198 200 201 201 206 210 202 182 193 173 191 180 229 267 290 187 185 186 198 204 211 226 252 248 236 241 178 176 112 202 265 277 254 259 257 277 288 280 265 319 321 274 258 257
265 272 252 221 216 201 204 190 193 196 196 197 198 198 203 207 203 201 202 183 186 186 225 175 265 185 186 171 164 196 209 215 226 238 225 205 140 127 246 247 318 282 216 224 231 243 257 254 279 281 242 235 212 156
262 277 241 221 208 202 191 173 197 195 191 191 190 190 194 194 193 197 200 181 185 202 237 191 171 214 173 170 155 171 199 170 226 213 226 159 2 223 233 249 306 273 244 267 229 243 251 264 288 271 210 176 145 124
255 265 231 217 202 187 177 180 197 186 183 183 176 172 181 183 175 186 175 171 186 228 229 229 188 212 177 151 150 152 184 191 169 251 136 109 243 275 325 339 296 320 272 239 265 262 268 270 251 211 182 165 137 141
259 247 224 206 192 177 172 198 196 181 181 177 182 195 171 162 161 185 177 175 188 226 209 212 192 152 162 127 179 200 180 162 128 260 134 0 331 341 31 43 85 33 329 298 301 307 306 287 258 211 192 203 230 264
254 230 211 195 182 180 179 204 188 184 181 182 171 143 141 160 180 163 191 174 185 210 190 183 190 194 161 154 130 172 154 93 217 137 87 67 251 38 64 68 76 76 14 352 350 347 347 311 282 248 237 233 245 229
236 211 197 188 180 179 193 191 187 184 186 192 190 163 167 178 99 167 185 235 209 193 172 170 172 172 157 168 90 101 96 227 158 54 183 220 201 109 67 63 43 16 349 341 341 358 21 2 311 276 270 267 238 199
215 199 183 179 175 186 187 185 187 188 196 209 181 160 175 191 221 192 180 181 201 191 179 173 149 158 140 116 134 116 229 107 64 114 223 218 165 72 47 36 41 45 39 326 283 234 286 269 292 294 284 280 245 216
194 178 177 176 180 184 184 181 179 184 222 231 177 190 198 215 234 224 203 192 180 144 167 136 111 154 87 111 62 97 118 204 198 206 230 150 101 72 61 52 41 49 43 19 290 242 262 257 301 325 298 309 277 248
165 171 177 172 177 177 169 167 169 170 255 258 238 137 171 150 230 182 187 171 158 160 143 137 100 81 122 126 119 185 147 197 227 186 121 114 94 71 66 49 35 35 30 32 44 336 282 269 283 311 328 340 313 283
170 169 165 167 165 158 158 152 150 170 266 265 190 69 182 128 159 139 142 126 152 147 106 111 88 171 115 89 148 179 184 212 142 133 133 125 107 93 75 58 42 30 16 23 27 21 322 303 308 311 292 273 290 333
155 161 158 152 152 153 153 144 102 193 270 311 94 84 88 104 111 94 77 111 125 106 110 121 114 82 123 147 239 203 134 137 139 133 133 123 108 90 87 68 52 41 41 43 34 21 21 9 344 322 307 296 272 256
155 148 145 149 150 151 133 87 145 223 44 39 73 78 79 84 79 79 84 95 99 97 97 72 72 123 204 202 168 150 149 149 144 140 130 118 122 103 90 78 62 42 47 35 39 44 44 28 356 340 328 324 305 268
145 145 149 153 157 132 96 90 280 88 49 26 52 59 77 64 70 76 89 86 90 70 56 49 99 58 135 127 141 139 143 142 134 137 145 133 82 84 95 86 57 64 43 40 42 40 38 33 20 352 332 324 314 314
143 140 146 153 143 62 87 95 67 50 52 58 48 70 64 75 56 55 48 51 58 42 49 5 114 117 119 125 134 123 123 122 126 134 124 89 86 111 19 14 5 347 358 34 35 21 3 333 323 327 331 335 316 343
131 136 136 133 111 55 65 46 70 59 60 67 46 47 55 46 36 33 38 46 70 43 46 118 126 131 135 121 117 118 109 99 102 121 208 301 326 3 318 306 305 312 337 353 4 6 347 338 331 317 313 315 305 282
130 135 100 64 78 40 38 24 67 42 69 34 47 54 34 46 34 44 62 67 93 70 78 91 142 140 136 128 118 113 114 164 176 181 271 291 301 311 311 306 126 124 115 105 82 54 1 344 336 333 332 332 327 319
126 89 58 48 54 62 37 35 59 71 81 64 64 67 36 52 53 57 34 60 83 51 48 69 183 172 171 186 214 241 256 251 242 255 269 220 150 122 107 86 42 357 351 345 339 340 344 342 333 322 323 329 334 338
68 19 34 51 105 102 74 37 40 64 78 59 92 72 40 51 65 52 84 356 36 11 15 12 285 216 214 148 117 110 113 117 102 108 87 48 10 346 339 341 344 349 359 8 21 17 4 346 342 347 349 343 334 332
88 166 168 178 158 116 143 103 121 139 103 64 47 78 80 71 74 320 305 6 64 77 84 108 127 129 123 115 103 101 95 100 98 116 87 24 349 343 326 318 310 344 47 32 24 22 15 360 345 331 323 330 333 332
82 141 139 153 147 139 105 102 106 98 96 139 156 88 89 121 154 5 44 120 108 100 94 89 92 94 84 75 58 38 23 16 2 21 352 339 344 353 6 112 114 110 40 8 4 350 338 343 335 329 330 331 325 324
44 60 93 68 68 56 89 85 83 61 55 79 115 99 109 93 45 90 91 91 94 90 81 74 72 64 53 41 31 18 12 22 16 11 310 358 23 65 36 24 1 343 329 327 325 325 319 308 309 307 306 307 305 300
70 69 76 51 56 49 47 66 63 46 46 51 81 55 66 84 80 68 59 56 39 12 353 339 336 353 347 336 331 330 331 332 334 332 325 319 316 316 318 322 324 324 319 318 310 295 292 290 292 294 293 292 295 291
53 60 62 47 65 55 50 65 100 85 68 65 78 106 111 100 69 53 9 346 328 323 314 317 307 306 312 313 307 309 312 314 312 304 306 304 307 302 298 301 305 309 312 317 318 315 308 303 302 302 300 296 294 299
48 55 62 56 61 49 20 13 107 50 40 44 85 247 293 143 141 42 15 358 336 319 300 283 289 290 296 299 297 303 321 310 302 310 314 310 306 298 298 307 317 323 326 320 314 315 317 318 317 315 311 307 297 298
74 70 71 53 34 3 347 355 345 291 285 287 286 277 263 262 60 24 5 7 4 16 9 343 323 335 319 308 295 283 266 285 292 309 314 318 313 307 309 319 327 332 334 331 317 319 322 324 324 319 319 326 301 301
28 30 70 121 328 45 36 351 272 276 257 248 249 270 306 52 83 25 25 16 9 5 4 19 37 42 34 358 326 314 303 278 257 271 283 293 290 290 292 298 307 315 325 324 322 319 320 324 328 319 309 321 326 306